KA2QBS Weather Reports


Display with metric or nautical units.
time (UTC)temp
F
wind
direction
speed
MPH
gust
MPH
rain 1hr
in
rain 24hr
in
rain mn
in
humidity
%
barometer
mb
20260903133007 68 155 0.0 0.0 0.00 0.20 0.01 97 1014.0
20260903131506 68 155 0.0 0.0 0.00 0.20 0.01 98 1014.2
20260903130005 68 155 0.0 0.0 0.00 0.20 0.01 98 1014.0
20260903124504 68 155 0.0 0.0 0.00 0.20 0.01 98 1014.3
20260903123005 68 155 0.0 0.0 0.00 0.20 0.01 98 1014.3
20260903121506 68 155 0.0 0.0 0.01 0.20 0.01 98 1014.2
20260903120002 67 155 0.0 0.0 0.01 0.20 0.01 98 1014.1
20260903114602 67 156 0.0 3.0 0.01 0.20 0.01 98 1014.1
20260903113059 67 190 0.0 0.0 0.01 0.20 0.01 98 1014.1
20260903111607 67 190 0.0 0.0 0.00 0.19 0.00 97 1014.2
20260903110100 67 190 0.0 0.0 0.00 0.19 0.00 97 1014.2
20260903104621 67 201 0.0 1.0 0.00 0.19 0.00 97 1014.1
20260903103104 67 201 0.0 0.0 0.00 0.19 0.00 97 1014.0
20260903101557 67 201 0.0 0.0 0.00 0.19 0.00 98 1014.2
20260903100057 66 201 0.0 0.0 0.00 0.19 0.00 98 1013.9
20260903094556 66 202 0.0 0.0 0.00 0.19 0.00 97 1013.7
20260903093103 67 202 0.0 1.0 0.00 0.19 0.00 98 1013.8
20260903091554 67 201 0.0 0.0 0.00 0.19 0.00 98 1013.6
20260903090053 66 220 0.0 1.0 0.00 0.19 0.00 99 1013.7
20260903084556 66 220 0.0 0.0 0.00 0.19 0.00 99 1013.7
20260903083057 66 223 0.0 0.0 0.00 0.19 0.00 98 1013.7
20260903081611 66 113 0.0 0.0 0.00 0.19 0.00 98 1013.9
20260903080050 66 113 0.0 0.0 0.00 0.19 0.00 98 1014.0
20260903074554 66 113 0.0 0.0 0.00 0.19 0.00 98 1013.9
20260903073048 66 113 0.0 0.0 0.00 0.19 0.00 98 1014.2
20260903071553 66 113 0.0 0.0 0.00 0.19 0.00 98 1014.2
20260903070047 66 113 0.0 0.0 0.00 0.19 0.00 98 1014.2
20260903064550 66 113 0.0 0.0 0.00 0.19 0.00 98 1014.1
20260903063050 66 113 0.0 0.0 0.00 0.19 0.00 98 1014.1
20260903061546 66 113 0.0 0.0 0.00 0.19 0.00 98 1013.9
20260903060046 66 113 0.0 0.0 0.00 0.19 0.00 98 1014.0
20260903054546 66 113 0.0 3.0 0.00 0.19 0.00 97 1014.0
20260903053044 66 115 0.0 0.0 0.00 0.19 0.00 97 1014.1
20260903051544 66 115 0.0 0.0 0.00 0.19 0.00 97 1014.1
20260903050047 66 115 0.0 5.0 0.00 0.19 0.00 97 1014.1
20260903044546 65 111 0.0 4.0 0.00 0.19 0.00 98 1014.5
20260903043041 65 111 0.0 0.0 0.00 0.19 0.00 98 1014.7
20260903041545 66 111 0.0 3.0 0.01 0.19 0.00 97 1014.6
20260903040036 65 137 0.0 5.0 0.03 0.19 0.00 98 1013.8
20260903034537 65 155 0.0 7.0 0.05 0.19 0.19 98 1013.6
20260903033033 65 102 0.0 6.0 0.07 0.19 0.19 98 1014.3
20260903031535 65 150 5.0 11.0 0.10 0.18 0.18 97 1014.4
20260903030030 65 105 1.0 7.0 0.08 0.16 0.16 97 1015.1
20260903024529 65 109 0.0 5.0 0.08 0.14 0.14 97 1015.3
20260903023032 65 182 0.0 0.0 0.07 0.11 0.11 97 1015.5
20260903021528 65 183 0.0 0.0 0.06 0.08 0.08 97 1015.6
20260903020053 65 130 0.0 0.0 0.05 0.07 0.07 97 1014.9
20260903014526 65 135 0.0 4.0 0.04 0.06 0.06 96 1015.6
20260903013026 66 161 0.0 2.0 0.02 0.04 0.04 95 1016.5
20260903011525 66 176 0.0 0.0 0.00 0.02 0.02 94 1016.4
20260903010025 66 177 0.0 2.0 0.00 0.02 0.02 94 1016.4
20260903004525 66 204 0.0 0.0 0.00 0.02 0.02 93 1016.4
20260903003024 66 217 0.0 0.0 0.00 0.02 0.02 93 1016.4
20260903001529 66 148 0.0 1.0 0.00 0.02 0.02 93 1016.3
20260903000023 66 135 0.0 6.0 0.00 0.02 0.02 93 1016.3
20260902234522 66 186 0.0 2.0 0.00 0.02 0.02 93 1016.4
20260902233022 66 124 2.0 10.0 0.00 0.02 0.02 92 1015.3
20260902231522 67 224 0.0 7.0 0.00 0.02 0.02 92 1015.5
20260902230021 67 124 2.0 6.0 0.00 0.02 0.02 91 1014.7
20260902224519 67 144 0.0 9.0 0.00 0.02 0.02 91 1015.1
20260902223018 67 123 3.0 12.0 0.00 0.02 0.02 91 1015.6
20260902221529 68 128 0.0 8.0 0.00 0.02 0.02 91 1016.7
20260902220011 68 146 0.0 5.0 0.00 0.02 0.02 90 1017.0
20260902214510 69 125 0.0 4.0 0.00 0.02 0.02 90 1017.5
20260902213009 69 111 0.0 8.0 0.00 0.02 0.02 90 1017.4
20260902211509 69 141 0.0 6.0 0.00 0.02 0.02 90 1017.4
20260902210010 69 146 3.0 9.0 0.00 0.02 0.02 88 1017.4
20260902204507 69 124 0.0 7.0 0.00 0.02 0.02 90 1017.2
20260902203009 69 101 3.0 10.0 0.00 0.02 0.02 89 1017.2
20260902201506 69 132 0.0 8.0 0.00 0.02 0.02 90 1017.2
20260902200003 69 108 2.0 8.0 0.00 0.02 0.02 90 1017.4
20260902194501 69 136 2.0 11.0 0.00 0.02 0.02 91 1017.4
20260902193001 69 151 5.0 11.0 0.00 0.02 0.02 90 1017.3
20260902191607 69 119 5.0 12.0 0.00 0.02 0.02 90 1017.8
20260902190059 69 172 1.0 5.0 0.00 0.02 0.02 91 1017.6
20260902184558 68 159 3.0 10.0 0.00 0.02 0.02 91 1017.6
20260902183135 68 124 4.0 9.0 0.00 0.02 0.02 92 1018.0
20260902181552 67 105 6.0 10.0 0.00 0.02 0.02 93 1018.1
20260902180052 66 148 1.0 8.0 0.00 0.02 0.02 94 1018.5
20260902174551 66 163 4.0 11.0 0.00 0.02 0.02 94 1018.2
20260902173056 65 144 5.0 13.0 0.01 0.02 0.02 96 1018.3
20260902171603 65 139 3.0 10.0 0.01 0.02 0.02 97 1018.1
20260902170050 64 82 1.0 5.0 0.01 0.02 0.02 98 1018.7
20260902164600 64 205 0.0 0.0 0.01 0.02 0.02 97 1018.8
20260902163049 64 163 0.0 10.0 0.00 0.01 0.01 97 1018.2
20260902161548 64 138 0.0 8.0 0.00 0.01 0.01 97 1018.6
20260902160051 64 136 2.0 8.0 0.01 0.01 0.01 97 1018.4
20260902154554 64 148 2.0 8.0 0.01 0.01 0.01 97 1018.8
20260902153046 64 173 0.0 2.0 0.01 0.01 0.01 97 1018.9
20260902151548 64 102 1.0 10.0 0.01 0.01 0.01 97 1018.4
20260902150046 64 128 3.0 9.0 0.00 0.00 0.00 96 1018.7
20260902144545 64 122 2.0 10.0 0.00 0.01 0.00 96 1019.0
20260902143044 64 187 0.0 6.0 0.00 0.01 0.00 96 1019.2
20260902141544 64 117 0.0 1.0 0.00 0.01 0.00 96 1019.0
20260902140043 64 144 1.0 7.0 0.00 0.01 0.00 96 1018.9
20260902134543 64 134 0.0 4.0 0.00 0.01 0.00 96 1019.0